Regional Weather Roundup
Issued by NWS Newport/Morehead, NC

Current Version | Previous Version | Graphics & Text | Print | Product List | Glossary Off
Versions: 1 2 3 4 5 6 7 8 9 10 11 12 13 14 15 16 17 18 19 20 21 22 23 24 25 26 27 28 29 30 31 32 33 34 35 36 37 38 39 40 41 42 43 44 45 46 47 48 49 50

000
ASUS42 KMHX 250325
RWRMHX
WEATHER ROUNDUP FOR EASTERN NORTH CAROLINA
NATIONAL WEATHER SERVICE NEWPORT/MOREHEAD CITY NC
1100 PM EDT SUN SEP 24 2017

NOTE: "FAIR" INDICATES FEW OR NO CLOUDS BELOW 12,000 FEET
WITH NO SIGNIFICANT WEATHER AND/OR OBSTRUCTIONS TO VISIBILITY

NCZ015>017-031-032-045>047-102-103-250400-
NORTH COAST

CITY           SKY/WX    TMP DP  RH WIND       PRES   REMARKS
EDENTON        CLOUDY    69  66  89 CALM      30.00F
ELIZABETH CITY PTCLDY    71  68  90 NE9       30.00F
KITTY HAWK     MOCLDY    70  66  86 NE8       29.98F
MANTEO         PTCLDY    71  67  88 NE13G20   29.98F

$$

NCZ045>047-081-094-103-104-250400-
CENTRAL COAST

CITY           SKY/WX    TMP DP  RH WIND       PRES   REMARKS
FRISCO         MOCLDY    73  70  90 NE12G23   29.95F

$$

NCZ095-097-098-100-101-250400-
SOUTHERN COAST

CITY           SKY/WX    TMP DP  RH WIND       PRES   REMARKS
BEAUFORT       CLOUDY    73  70  90 NE9       29.94S
CEDAR ISLAND   NOT AVBL
JACKSONVILLE   MOCLDY    73  66  78 N8        29.94F
PINEY ISLAND     N/A    N/A N/A N/A N15G22    29.94F
WILMINGTON     CLOUDY    73  69  87 N7        29.94F


$$

NCZ011>013-027>030-043-044-078>080-089-090>093-098-250400-
COASTAL PLAIN

CITY           SKY/WX    TMP DP  RH WIND       PRES   REMARKS
AHOSKIE        PTCLDY    66  62  87 N3        30.01F
CLINTON        CLOUDY    71  67  86 CALM      29.98F
ELIZABETHTOWN  NOT AVBL
GOLDSBORO      PTCLDY    72  65  77 NE8       29.97F
GREENVILLE     PTCLDY    66  61  82 N7        30.01F
HAVELOCK       CLOUDY    73  68  84 NE13      29.96F
KENANSVILLE    FOG       66  64  94 CALM      29.98S VSB 1/4
KINSTON        CLOUDY    71  62  72 N7        29.99S
NEW BERN       PTCLDY    71  66  84 N7        29.97F
RICHLANDS      PTCLDY    71  65  81 NE6       29.97S
ROCKY MOUNT    PTCLDY    68  61  78 NE6       30.01F
WASHINGTON     PTCLDY    69  63  82 NE7       29.99F
WHITEVILLE     CLOUDY    72  68  88 CALM      29.96S

$$

AMZ130-135-150-152-154-156-158-170-250-252-270-ANZ085-086-088-633-658-670-250400-
MARINE OBSERVATIONS

STATION/POSITION TIME  TEMP    WIND        PRES    WAVE   SWELL
                       AIR SEA DIR/SP/G            HT/PER HT/PER
                 (UTC) (F)     (DEG/KT/KT) (MB)    (FT/S) (FT/S)
CHESAPEAKE LIGHT NOT AVBL
64 E VA BEACH    0250   71 70   70/ 10/ 12 1016.3   10/15  10/15
DUCK             0300   72 77   60/ 16/ 18 1015.5
2 E DUCK         0230      76                N/A     5/15   3/15
OREGON INLET     0300   72 77   40/ 14/ 20 1014.7
13E OREGON INLT  0248      75                N/A     7/13   7/13
HATTERAS CG      0300   73 78   50/ 16/ 19 1013.9
DIAMOND BUOY     0250   75 81   30/ 21/ 27 1012.8   10/15   8/15
CAPE LOOKOUT     0300   75      30/ 19/ 27 1013.1
BEAUFORT LAB     0300   73 76   20/ 10/ 13 1013.2
30 SE NEW RVR IN 0308   77      40/ 21/ 27 1012.4
30 SE NEW RVR IN NOT AVBL
27 SE WRIGHTSVLE 0308   77 80   70/ 19/ 25 1012.5
5 SE WRIGHTSVLE  0208   78 78   40/ 14/ 23 1013.4
225 S CAPE HAT   0250   80 80   20/ 31/ 39 1002.3   20/14  11/14
41 SE CHARLESTON 0310   80 81   30/ 17/ 21 1012.1

$$



USA.gov is the U.S. government's official web portal to all federal, state and local government web resources and services.